Lexington Weather

Lexington, Massachusetts, USA

36°F
1/27/2020 7:46am 
  • Lexington Conditions: Overcast
  • Temperature: 36.3°F / 2.4°CWarmer 0.2°F than last hour.
  • Dew Point: 31.3°FDecreased 0.2°Fsince last hour.
  • Relative Humidity: 82%Decreased 1.0% since last hour.
  • Wind: Wind from SW SW 4 mph, 10-min avg: 2 mph, gust: 8 mph
  • Barometer: 29.57 in Steady
  • Visibility: 10 miles
  • Rain Today: 0.00 in
  •   

Regional Weather Roundup
for Boston / Norton, MA

        
000
ASUS41 KBOX 242100
RWRBOX

REGIONAL WEATHER ROUNDUP
NATIONAL WEATHER SERVICE BOSTON/NORTON MA
400 PM EST FRI JAN 24 2020

NOTE:  "FAIR" INDICATES FEW OR NO CLOUDS BELOW 12,000 FEET WITH NO 
SIGNIFICANT WEATHER AND/OR OBSTRUCTIONS TO VISIBILITY.

MAZALL-242200-
EASTERN MASSACHUSETTS
  
CITY           SKY/WX    TMP DP  RH WIND       PRES   REMARKS
BOSTON         MOCLDY    43  34  70 N8        30.40R                  
BEVERLY        FAIR      41  34  76 N6        30.39F                  
LAWRENCE       FAIR      40  33  76 NE8       30.41S                  
BEDFORD        FAIR      43  32  65 NE9       30.38R                  
BLUE HILL        N/A     39  34  82 NE7       30.36R                  
NORWOOD        FAIR      46  34  62 NE9       30.39R                  
MARSHFIELD     NOT AVBL                                               
PLYMOUTH       FAIR      43  35  73 NE8       30.38R                  
TAUNTON        FAIR      47  30  51 VRB6      30.37R                  
NEW BEDFORD    FAIR      46  29  51 NE9       30.36R                  
$$

MAZALL-242200-
CAPE COD AND THE ISLANDS
  
CITY           SKY/WX    TMP DP  RH WIND       PRES   REMARKS
FALMOUTH       CLEAR     45  32  61 E10       30.37S                  
HYANNIS        NOT AVBL                                               
CHATHAM        FAIR      43  37  79 NE6       30.39S                  
PROVINCETOWN   FAIR      44  36  73 E8        30.38F                  
NANTUCKET      FAIR      43  36  76 NE8       30.37S                  
MARTHAS VNYRD  FAIR      43  30  60 E8        30.36S                  
$$
 
MAZALL-242200-
CENTRAL AND WESTERN MASSACHUSETTS
  
CITY           SKY/WX    TMP DP  RH WIND       PRES   REMARKS
WORCESTER      FAIR      42  25  50 NE7       30.34S                  
FITCHBURG      FAIR      43  28  55 E6        30.39R                  
ORANGE         FAIR      45  21  38 E8        30.35F                  
SPRINGFIELD    NOT AVBL                                               
WESTFIELD      FAIR      44  21  40 N6        30.33F                  
NORTH ADAMS    FAIR      46  17  31 E12       30.30S                  
PITTSFIELD     FAIR      46  22  38 SE7       30.27S                  
$$
 
RIZALL-242200-
RHODE ISLAND
  
CITY           SKY/WX    TMP DP  RH WIND       PRES   REMARKS
PROVIDENCE     FAIR      48  28  46 NE9       30.37R                  
NEWPORT        FAIR      47  25  42 S3        30.35S                  
BLOCK ISLAND   FAIR      41  28  60 E7        30.35F                  
SMITHFIELD     FAIR      44  31  60 E5        30.36S                  
WESTERLY       FAIR      51  14  22 NE7       30.35S                  
$$
 
CTZALL-242200-
CONNECTICUT
  
CITY           SKY/WX    TMP DP  RH WIND       PRES   REMARKS
BRADLEY INTL   FAIR      47  21  35 NE3       30.33F                  
HARTFORD       FAIR      47  20  34 N3        30.34F                  
BRIDGEPORT     FAIR      43  26  51 E8        30.33S                  
DANBURY        FAIR      45  18  34 SE6       30.31S                  
GROTON         NOT AVBL                                               
NEW HAVEN      FAIR      45  23  42 E6        30.33S                  
CHESTER        FAIR      48  23  37 SE5       30.32S                  
MERIDEN        FAIR      47  22  37 VRB6      30.32F                  
WILLIMANTIC    FAIR      49  19  30 E7        30.35S                  
OXFORD         FAIR      46  27  47 E6        30.31F                  
$$

MEZ002-015-021-024-NHZ003-005-008-011-012-014-VTZ005-008-242200-
NORTHERN NEW ENGLAND
  
CITY           SKY/WX    TMP DP  RH WIND       PRES   REMARKS
PORTLAND ME    MOCLDY    40  31  70 E9        30.44S                  
BANGOR ME      MOCLDY    38  26  62 N3        30.46S                  
CONCORD NH     FAIR      40  28  62 E6        30.40R                  
MANCHESTER NH  MOCLDY    43  31  62 E9        30.38S                  
NASHUA NH      FAIR      42  32  67 E8        30.40R                  
PORTSMOUTH NH  MOCLDY    39  33  81 NE6       30.39F                  
JAFFREY NH     FAIR      42  21  43 VRB3      30.35S                  
KEENE NH       FAIR      46  19  34 VRB3      30.35S                  
BURLINGTON VT  MOCLDY    41  19  41 CALM      30.32F                  
MT. WASHINGTON MOCLDY    30   0  27 SW18        N/A  WCI  18          
$$

NYZ052-076-242200-
EASTERN NEW YORK
  
CITY           SKY/WX    TMP DP  RH WIND       PRES   REMARKS
ALBANY         MOCLDY    41  20  43 E5        30.31F                  
NEW YORK CITY  MOCLDY    42  26  53 NE8       30.30F                  
$$
 
ANZALL-242200-
MARINE OBSERVATIONS
  
STATION/POSITION TIME  TEMP    WIND        PRES    VSBY  WAVE
                       AIR SEA DIR/SP/G                  HT/PER
                 (UTC) (F)     (DEG/KT/KT) (MB)    (MI)  (FT/S)
BOSTON BUOY      1950   43 43   40/ 10/ 12 1028.5          3/10
BUZZARDS BAY     NOT AVBL
NANTUCKET SOUND  NOT AVBL
MASS BAY-STELLWA 2004   42 42   70/  8/  8 1027.5S  1 7/8  4/11
ISLE OF SHOALS   2000   40      30/ 18/ 19 1029.1R
S OF BLOCK IS    2030      45                N/A           4/11
$$

......................KEY.........................
  SKY/WX - SKY CONDITION/PRESENT WEATHER
  TMP    - TEMPERATURE IN FAHRENHEIT
  DWPT   - DEWPOINT IN FAHRENHEIT
  RH     - RELATIVE HUMIDITY IN PERCENT
  WIND   - DIRECTION AND SPEED IN MPH
  PRES   - MEAN SEA LEVEL PRESSURE IN INCHES OF HG
  WCI    - WIND CHILL INDEX
  VSB    - VISIBILITY IN MILES
  HX     - HEAT INDEX
  TC     - TEMPERATURE IN CELSIUS
  VRB    - VARIABLE WIND DIRECTION
  N/A    - NOT AVAILABLE
  
      

Other recent Regional Weather Roundups

Mon Jan 27, 7:10am

Mon Jan 27, 7:00am

Mon Jan 27, 6:10am

Mon Jan 27, 6:00am

Mon Jan 27, 5:10am

Mon Jan 27, 5:00am

Mon Jan 27, 4:10am

Mon Jan 27, 4:01am

Mon Jan 27, 3:10am

Mon Jan 27, 3:00am

Mon Jan 27, 2:10am

Mon Jan 27, 2:00am

Mon Jan 27, 1:10am

Mon Jan 27, 1:00am

Mon Jan 27, 12:10am

Mon Jan 27, 12:00am

Sun Jan 26, 11:10pm

Sun Jan 26, 11:00pm

Sun Jan 26, 10:10pm

Sun Jan 26, 10:00pm

Sun Jan 26, 9:10pm

Sun Jan 26, 9:01pm

Sun Jan 26, 8:10pm

Sun Jan 26, 8:00pm

Sun Jan 26, 7:10pm

Sun Jan 26, 7:00pm

Sun Jan 26, 6:10pm

Sun Jan 26, 6:01pm

Sun Jan 26, 5:10pm

Sun Jan 26, 5:01pm

Sun Jan 26, 4:10pm

Sun Jan 26, 4:00pm

Sun Jan 26, 3:10pm

Sun Jan 26, 3:01pm

Sun Jan 26, 2:10pm

Sun Jan 26, 2:01pm

Sun Jan 26, 1:10pm

Sun Jan 26, 1:00pm

Sun Jan 26, 12:10pm

Sun Jan 26, 12:00pm

Sun Jan 26, 11:10am

Sun Jan 26, 11:01am

Sun Jan 26, 10:10am

Sun Jan 26, 10:01am

Sun Jan 26, 9:10am

Sun Jan 26, 9:00am

Sun Jan 26, 8:10am

Sun Jan 26, 8:00am

Sun Jan 26, 7:10am

Sun Jan 26, 7:00am

Sun Jan 26, 6:10am

Sun Jan 26, 6:00am

Sun Jan 26, 5:10am

Sun Jan 26, 5:00am

Sun Jan 26, 4:10am

Sun Jan 26, 4:01am

Sun Jan 26, 3:10am

Sun Jan 26, 3:01am

Sun Jan 26, 2:10am

Sun Jan 26, 2:00am

Sun Jan 26, 1:10am

Sun Jan 26, 1:00am

Sun Jan 26, 12:10am

Sun Jan 26, 12:00am

Sat Jan 25, 11:10pm

Sat Jan 25, 11:00pm

Sat Jan 25, 10:10pm

Sat Jan 25, 10:01pm

Sat Jan 25, 9:10pm

Sat Jan 25, 9:01pm

Sat Jan 25, 8:10pm

Sat Jan 25, 8:01pm

Sat Jan 25, 7:10pm

Sat Jan 25, 7:01pm

Sat Jan 25, 6:10pm

Sat Jan 25, 6:01pm

Sat Jan 25, 5:10pm

Sat Jan 25, 5:01pm

Sat Jan 25, 4:10pm

Sat Jan 25, 4:00pm

Sat Jan 25, 3:10pm

Sat Jan 25, 3:01pm

Sat Jan 25, 2:10pm

Sat Jan 25, 2:00pm

Sat Jan 25, 1:10pm

Sat Jan 25, 1:00pm

Sat Jan 25, 12:10pm

Sat Jan 25, 12:00pm

Sat Jan 25, 11:10am

Sat Jan 25, 11:00am

Sat Jan 25, 10:10am

Sat Jan 25, 10:00am

Sat Jan 25, 9:10am

Sat Jan 25, 9:00am

Sat Jan 25, 8:10am

Sat Jan 25, 8:01am

Sat Jan 25, 7:10am

Sat Jan 25, 7:00am

Sat Jan 25, 6:10am

Sat Jan 25, 6:00am

Sat Jan 25, 5:10am

Sat Jan 25, 5:00am

Sat Jan 25, 4:10am

Sat Jan 25, 4:00am

Sat Jan 25, 3:10am

Sat Jan 25, 3:00am

Sat Jan 25, 2:10am

Sat Jan 25, 2:01am

Sat Jan 25, 1:10am

Sat Jan 25, 1:00am

Sat Jan 25, 12:10am

Sat Jan 25, 12:00am

Fri Jan 24, 11:10pm

Fri Jan 24, 11:00pm

Fri Jan 24, 10:10pm

Fri Jan 24, 10:00pm

Fri Jan 24, 9:10pm

Fri Jan 24, 9:00pm

Fri Jan 24, 8:10pm

Fri Jan 24, 8:01pm

Fri Jan 24, 7:10pm

Fri Jan 24, 7:00pm

Fri Jan 24, 6:10pm

Fri Jan 24, 6:01pm

Fri Jan 24, 5:10pm

Fri Jan 24, 5:01pm

Fri Jan 24, 4:10pm

Fri Jan 24, 3:10pm

Fri Jan 24, 3:00pm

Fri Jan 24, 2:10pm

Fri Jan 24, 2:01pm

Fri Jan 24, 1:10pm

Fri Jan 24, 1:00pm

Fri Jan 24, 12:10pm

Fri Jan 24, 12:01pm

Fri Jan 24, 11:10am

Fri Jan 24, 11:01am

Fri Jan 24, 10:10am

Fri Jan 24, 10:00am

Fri Jan 24, 9:10am

Fri Jan 24, 9:00am

Fri Jan 24, 8:10am

Fri Jan 24, 8:01am

Meta data:

ID: baf53cd9-b897-4de7-90db-840c7a8a864d
Link: https://api.weather.gov/products/baf53cd9-b897-4de7-90db-840c7a8a864d